Location: Baia Mare
(47.6567°N, 23.5850°E)
Time: 13:48:49
(UTC+02:00)

ISS - Pass Details

Date: 31 December 2018
Orbit: 401 x 408 km, 51.6° (Epoch: 16 December)

Event Time Altitude Azimuth Distance (km) Brightness Sun altitude
Exits shadow 05:09:34 13° 72° (ENE) 1,303 -0.5 -29.9°
Drops below altitude 10° 05:09:59 10° 71° (ENE) 1,467 -0.2 -29.9°
Sets 05:12:05 0° 67° (ENE) 2,329 1.0 -29.5°
